When you browse on this site, cookies collect data to enhance your experience and personalize the content and advertising you see.
Visit our Privacy Policy to learn more. By continuing to use the site, you agree to this use of cookies and data.
  • Em Portugal
  • Lista de países
  • Para 7 dias
  • Temperatura da água
  • Mapas de satélite
  • Mapa do tempo
  • Widgets de tempo
  • user-avatar
    Iniciar Sessão

    Previsão horária em Parzyce

    Hoje, 19 Novembro, Segunda-feira

    Tempo Temperatura Precipitação Vento Pressão Humidade
    00:00 +1°C° 0.2 mm 2 m/s 748 mmHg 85%
    01:00 +1°C° 0 mm 2 m/s 748 mmHg 91%
    02:00 +1°C° 0.3 mm 2 m/s 747 mmHg 91%
    03:00 0°C° 0.3 mm 3 m/s 747 mmHg 91%
    04:00 0°C° 0.3 mm 3 m/s 747 mmHg 91%
    05:00 0°C° 0.1 mm 4 m/s 747 mmHg 91%
    06:00 0°C° 0.1 mm 4 m/s 747 mmHg 91%
    07:00 +1°C° 0 mm 3 m/s 746 mmHg 91%
    08:00 0°C° 0.1 mm 4 m/s 747 mmHg 88%
    09:00 0°C° 0.1 mm 5 m/s 747 mmHg 84%
    10:00 +1°C° 0.1 mm 5 m/s 747 mmHg 81%
    11:00 +1°C° 0.1 mm 6 m/s 747 mmHg 78%
    12:00 +1°C° 0.1 mm 6 m/s 747 mmHg 76%
    13:00 +1°C° 0.1 mm 6 m/s 747 mmHg 74%
    14:00 +1°C° 0 mm 6 m/s 747 mmHg 74%
    15:00 0°C° 0 mm 5 m/s 747 mmHg 75%
    16:00 0°C° 0 mm 5 m/s 747 mmHg 75%
    17:00 -1°C° 0 mm 5 m/s 747 mmHg 76%
    18:00 -1°C° 0 mm 5 m/s 747 mmHg 76%
    19:00 -2°C° 0 mm 6 m/s 747 mmHg 76%
    20:00 -3°C° 0 mm 6 m/s 747 mmHg 77%
    21:00 -3°C° 0 mm 6 m/s 747 mmHg 77%
    22:00 -2°C° 0 mm 5 m/s 747 mmHg 78%
    23:00 -4°C° 0 mm 5 m/s 747 mmHg 79%

    Amanhã, 20 Novembro, Terça-feira

    Tempo Temperatura Precipitação Vento Pressão Humidade
    00:00 -4°C° 0 mm 5 m/s 747 mmHg 80%
    01:00 -4°C° 0 mm 5 m/s 747 mmHg 81%
    02:00 -4°C° 0 mm 5 m/s 746 mmHg 81%
    03:00 -4°C° 0 mm 5 m/s 746 mmHg 81%
    04:00 -4°C° 0 mm 6 m/s 746 mmHg 81%
    05:00 -4°C° 0 mm 6 m/s 745 mmHg 81%
    06:00 -4°C° 0 mm 5 m/s 745 mmHg 82%
    07:00 -4°C° 0 mm 5 m/s 745 mmHg 82%
    08:00 -3°C° 0 mm 6 m/s 745 mmHg 80%
    09:00 -2°C° 0 mm 6 m/s 745 mmHg 77%
    10:00 -2°C° 0 mm 7 m/s 744 mmHg 75%
    11:00 -2°C° 0 mm 7 m/s 744 mmHg 74%
    12:00 -1°C° 0 mm 6 m/s 744 mmHg 73%
    13:00 -1°C° 0 mm 6 m/s 743 mmHg 72%
    14:00 -1°C° 0.2 mm 6 m/s 743 mmHg 73%
    15:00 -1°C° 0.2 mm 6 m/s 743 mmHg 74%
    16:00 -1°C° 0.2 mm 6 m/s 743 mmHg 76%
    17:00 0°C° 0.3 mm 5 m/s 743 mmHg 77%
    18:00 0°C° 0.3 mm 5 m/s 743 mmHg 79%
    19:00 0°C° 0.3 mm 5 m/s 743 mmHg 81%
    20:00 0°C° 0.1 mm 5 m/s 743 mmHg 82%
    21:00 0°C° 0.1 mm 4 m/s 744 mmHg 84%
    22:00 -1°C° 0.1 mm 4 m/s 744 mmHg 85%
    23:00 -1°C° 0 mm 4 m/s 744 mmHg 87%

    Depois de amanhã, 21 Novembro, Quarta-feira

    Tempo Temperatura Precipitação Vento Pressão Humidade
    00:00 0°C° 0 mm 3 m/s 744 mmHg 88%
    01:00 0°C° 0 mm 3 m/s 744 mmHg 89%
    02:00 0°C° 0 mm 3 m/s 745 mmHg 90%
    03:00 0°C° 0 mm 3 m/s 745 mmHg 90%
    04:00 0°C° 0 mm 3 m/s 745 mmHg 91%
    05:00 0°C° 0 mm 3 m/s 745 mmHg 91%
    06:00 0°C° 0 mm 3 m/s 745 mmHg 91%
    07:00 0°C° 0 mm 3 m/s 746 mmHg 91%
    08:00 +1°C° 0 mm 3 m/s 746 mmHg 90%
    09:00 +1°C° 0 mm 3 m/s 747 mmHg 89%
    10:00 0°C° 0 mm 4 m/s 747 mmHg 87%
    11:00 +1°C° 0 mm 4 m/s 747 mmHg 86%
    12:00 +1°C° 0 mm 4 m/s 747 mmHg 85%
    13:00 +1°C° 0 mm 4 m/s 748 mmHg 84%
    14:00 +1°C° 0 mm 4 m/s 748 mmHg 85%
    15:00 +1°C° 0 mm 4 m/s 748 mmHg 86%
    16:00 0°C° 0 mm 4 m/s 748 mmHg 87%
    17:00 0°C° 0 mm 4 m/s 748 mmHg 87%
    18:00 0°C° 0 mm 4 m/s 748 mmHg 87%
    19:00 0°C° 0 mm 4 m/s 748 mmHg 87%
    20:00 0°C° 0 mm 4 m/s 749 mmHg 88%
    21:00 -1°C° 0 mm 4 m/s 749 mmHg 88%
    22:00 -1°C° 0 mm 4 m/s 749 mmHg 88%
    23:00 -1°C° 0 mm 4 m/s 749 mmHg 88%

    22 Novembro, Quinta-feira

    Tempo Temperatura Precipitação Vento Pressão Humidade
    00:00 -1°C° 0 mm 4 m/s 749 mmHg 87%
    01:00 -1°C° 0 mm 4 m/s 749 mmHg 87%
    02:00 -2°C° 0 mm 4 m/s 749 mmHg 87%
    03:00 -2°C° 0 mm 4 m/s 749 mmHg 88%
    04:00 -2°C° 0 mm 3 m/s 749 mmHg 89%
    05:00 -2°C° 0 mm 3 m/s 749 mmHg 89%
    06:00 -2°C° 0 mm 3 m/s 749 mmHg 89%
    07:00 -2°C° 0 mm 3 m/s 749 mmHg 89%
    08:00 -1°C° 0 mm 3 m/s 749 mmHg 86%
    09:00 -1°C° 0 mm 3 m/s 750 mmHg 83%
    10:00 0°C° 0 mm 3 m/s 750 mmHg 80%
    11:00 +1°C° 0 mm 3 m/s 750 mmHg 79%
    12:00 +2°C° 0 mm 3 m/s 750 mmHg 78%
    13:00 +2°C° 0 mm 3 m/s 750 mmHg 77%
    14:00 +2°C° 0 mm 3 m/s 750 mmHg 80%
    15:00 +2°C° 0 mm 2 m/s 750 mmHg 84%
    16:00 +2°C° 0 mm 2 m/s 750 mmHg 88%
    17:00 +1°C° 0 mm 2 m/s 750 mmHg 89%
    18:00 +1°C° 0 mm 2 m/s 750 mmHg 90%
    19:00 +1°C° 0 mm 2 m/s 750 mmHg 91%
    20:00 +1°C° 0 mm 2 m/s 751 mmHg 91%
    21:00 +1°C° 0 mm 2 m/s 751 mmHg 92%
    22:00 +1°C° 0 mm 2 m/s 751 mmHg 92%
    23:00 +1°C° 0 mm 2 m/s 751 mmHg 92%

    23 Novembro, Sexta-feira

    Tempo Temperatura Precipitação Vento Pressão Humidade
    00:00 +1°C° 0 mm 2 m/s 751 mmHg 92%
    01:00 +1°C° 0 mm 2 m/s 751 mmHg 92%
    02:00 +1°C° 0 mm 2 m/s 751 mmHg 92%
    03:00 +1°C° 0 mm 2 m/s 751 mmHg 92%
    04:00 +1°C° 0 mm 2 m/s 751 mmHg 92%
    05:00 +1°C° 0 mm 2 m/s 751 mmHg 92%
    06:00 +1°C° 0 mm 2 m/s 751 mmHg 92%
    07:00 +1°C° 0 mm 2 m/s 751 mmHg 92%
    08:00 +3°C° 0 mm 2 m/s 752 mmHg 89%
    09:00 +4°C° 0 mm 2 m/s 752 mmHg 86%
    10:00 +5°C° 0 mm 2 m/s 752 mmHg 83%
    11:00 +6°C° 0 mm 2 m/s 752 mmHg 82%
    12:00 +6°C° 0 mm 2 m/s 752 mmHg 80%
    13:00 +7°C° 0 mm 2 m/s 751 mmHg 78%
    14:00 +6°C° 0 mm 2 m/s 751 mmHg 82%
    15:00 +5°C° 0 mm 2 m/s 751 mmHg 86%
    16:00 +4°C° 0 mm 2 m/s 751 mmHg 91%
    17:00 +4°C° 0 mm 2 m/s 751 mmHg 91%
    18:00 +4°C° 0 mm 2 m/s 750 mmHg 92%
    19:00 +3°C° 0 mm 2 m/s 750 mmHg 92%
    20:00 +3°C° 0 mm 2 m/s 750 mmHg 92%
    21:00 +3°C° 0 mm 2 m/s 750 mmHg 92%
    22:00 +3°C° 0 mm 2 m/s 750 mmHg 92%
    23:00 +3°C° 0 mm 2 m/s 750 mmHg 92%

    24 Novembro, Sábado

    Tempo Temperatura Precipitação Vento Pressão Humidade
    00:00 +3°C° 0 mm 2 m/s 749 mmHg 92%
    01:00 +3°C° 0 mm 2 m/s 749 mmHg 92%
    02:00 +3°C° 0 mm 2 m/s 749 mmHg 92%
    03:00 +3°C° 0 mm 2 m/s 748 mmHg 92%
    04:00 +3°C° 0 mm 2 m/s 748 mmHg 92%
    05:00 +2°C° 0 mm 2 m/s 748 mmHg 92%
    06:00 +2°C° 0 mm 2 m/s 748 mmHg 91%
    07:00 +2°C° 0 mm 2 m/s 747 mmHg 91%
    08:00 +3°C° 0 mm 2 m/s 747 mmHg 88%
    09:00 +4°C° 0 mm 2 m/s 747 mmHg 85%
    10:00 +5°C° 0 mm 2 m/s 747 mmHg 82%
    11:00 +5°C° 0 mm 2 m/s 747 mmHg 81%
    12:00 +6°C° 0 mm 2 m/s 747 mmHg 80%
    13:00 +6°C° 0 mm 2 m/s 747 mmHg 79%
    14:00 +7°C° 0.1 mm 1 m/s 746 mmHg 82%
    15:00 +6°C° 0.1 mm 1 m/s 746 mmHg 85%
    16:00 +6°C° 0.1 mm 1 m/s 746 mmHg 88%
    17:00 +5°C° 0 mm 1 m/s 746 mmHg 89%
    18:00 +5°C° 0 mm 1 m/s 746 mmHg 90%
    19:00 +5°C° 0 mm 1 m/s 746 mmHg 90%
    20:00 +5°C° 0.1 mm 1 m/s 746 mmHg 91%
    21:00 +5°C° 0.1 mm 1 m/s 746 mmHg 92%
    22:00 +5°C° 0.1 mm 1 m/s 746 mmHg 92%
    23:00 +4°C° 0 mm 2 m/s 746 mmHg 93%
    Mostrar mais